Regional Weather Roundup
Issued by NWS

Home | Current Version | Previous Version | Graphics & Text | Print | Product List | Glossary On
Versions: 1 2 3 4 5 6 7 8 9 10 11 12 13 14 15 16 17 18 19 20 21 22 23 24 25 26 27 28 29 30 31 32 33 34 35 36 37 38 39 40 41 42 43 44 45 46 47 48 49 50
000
ASUS43 KBIS 221910
RWRND
NORTH DAKOTA REGIONAL WEATHER ROUNDUP
NATIONAL WEATHER SERVICE EASTERN NORTH DAKOTA/GRAND FORKS ND
200 PM CDT TUE MAY 22 2018

  NOTE: "FAIR" INDICATES FEW OR NO CLOUDS BELOW 12,000 FEET WITH NO
  SIGNIFICANT WEATHER AND/OR OBSTRUCTIONS TO VISIBILITY.

NDZ001>003-009>011-017-222000-
...NORTHWEST NORTH DAKOTA...

CITY           SKY/WX    TMP DP  RH WIND       PRES   REMARKS
WILLISTON      CLOUDY    75  54  47 W9        29.93S
MINOT          FAIR      83  45  26 SW12      29.91F
MINOT AFB      FAIR      82  46  28 S10G17    29.89F
$$

NDZ018>021-031>035-040>046-222000-
...SOUTHWEST NORTH DAKOTA...

CITY           SKY/WX    TMP DP  RH WIND       PRES   REMARKS
BISMARCK       FAIR      81  48  31 MISG      29.93F
DICKINSON      FAIR      79  50  36 S7        29.92F
GARRISON         N/A     78  49  35 VRB7      29.93F
HETTINGER      FAIR      78  55  44 E6        29.94F
$$

NDZ004>008-012>016-024-026-027-054-222000-
...NORTHEAST NORTH DAKOTA...

CITY           SKY/WX    TMP DP  RH WIND       PRES   REMARKS
GRAND FORKS    PTSUNNY   76  57  51 S5        29.96F
GRAND FORKS AF FAIR      78  57  48 S9        29.97F
DEVILS LAKE    FAIR      76  51  41 SW8       29.96F
$$

NDZ022-023-025-028>030-036>039-047>053-222000-
...SOUTHEAST NORTH DAKOTA...

CITY           SKY/WX    TMP DP  RH WIND       PRES   REMARKS
JAMESTOWN      FAIR      79  53  40 VRB6      29.95F
FARGO          FAIR      75  57  53 S7        29.98F
WAHPETON       FAIR      75  52  43 E5        29.98F
$$



USA.gov is the U.S. government's official web portal to all federal, state and local government web resources and services.